Find Starlink 11569

NORAD ID: 62910 Int'l Des: 2025-027 Owner: SPXS Country: US Constellation: starlink operational
LEOCIRCULAR

Live-Position

3D-Globus wird geladen...

Über Starlink 11569

Beschreibung wird geladen...

Nächste Überflüge

Passes for default location (London). Set your location on the main map for personalized predictions.

Höhenverlauf

Loading altitude history...

Zweizeiliger Elementsatz

1 62910U 25027D 26124.70811606 .00202241 00000-0 15340-2 0 9994
2 62910 43.0001 9.8891 0001496 231.7890 128.2843 15.70956508 71960
Epoch: 4. Mai 2026 • Age: 23 hours

Aktueller Status

Höhe 357.2 km
Geschwindigkeit 7.70 km/s
Subsatellitenpunkt 36.31°N, 23.04°E
Startdatum 8. Feb. 2025
Alter 1.2 years
Typ internet

Technische Details

Klassifizierung Payload
Masse 960.00 kg
Trockenmasse 910.00 kg
Gesamtmasse 960.00 kg
Länge 0.30 m
Durchmesser 4.10 m
Spannweite 29.00 m
Form Box + pan
Hersteller SPXS
Bus-Typ Starlink V2MD
Phasenstatus In Orbit
Besitzer/Staat SPXS/US

Most Searched